TimeCDT,TemperatureF,Dew PointF,Humidity,Sea Level PressureIn,VisibilityMPH,Wind Direction,Wind SpeedMPH,Gust SpeedMPH,PrecipitationIn,Events,Conditions,WindDirDegrees,DateUTC
12:15 AM,42.1,40.1,93,30.07,10.0,SSE,3.5,-,N/A,,Clear,160,2013-09-23 05:15:00
12:35 AM,41.4,39.6,93,30.06,10.0,SSE,3.5,-,N/A,,Clear,160,2013-09-23 05:35:00
12:55 AM,41.0,39.4,94,30.07,10.0,SSE,3.5,-,N/A,,Clear,160,2013-09-23 05:55:00
1:15 AM,40.5,39.2,95,30.07,10.0,SSE,3.5,-,N/A,,Clear,160,2013-09-23 06:15:00
1:35 AM,40.3,39.0,95,30.07,10.0,SSE,3.5,-,N/A,,Clear,160,2013-09-23 06:35:00
1:55 AM,40.3,39.0,95,30.07,10.0,SSE,3.5,-,N/A,,Clear,160,2013-09-23 06:55:00
2:15 AM,40.1,39.0,96,30.07,10.0,SSE,3.5,-,N/A,,Clear,160,2013-09-23 07:15:00
2:35 AM,39.9,38.7,95,30.06,10.0,South,4.6,-,N/A,,Clear,170,2013-09-23 07:35:00
2:55 AM,40.1,38.8,95,30.07,10.0,South,3.5,-,N/A,,Clear,170,2013-09-23 07:55:00
3:15 AM,39.7,38.8,97,30.07,10.0,South,3.5,-,N/A,,Clear,170,2013-09-23 08:15:00
3:35 AM,39.4,38.7,97,30.07,10.0,Calm,Calm,-,N/A,,Clear,0,2013-09-23 08:35:00
3:55 AM,38.7,38.1,98,30.08,10.0,Calm,Calm,-,N/A,,Clear,0,2013-09-23 08:55:00
4:15 AM,38.3,37.8,98,30.08,10.0,Calm,Calm,-,N/A,,Clear,0,2013-09-23 09:15:00
4:35 AM,37.8,37.6,99,30.09,10.0,Calm,Calm,-,N/A,,Clear,0,2013-09-23 09:35:00
4:55 AM,37.6,37.4,99,30.09,10.0,Calm,Calm,-,N/A,,Clear,0,2013-09-23 09:55:00
5:15 AM,36.7,36.5,99,30.10,10.0,Calm,Calm,-,N/A,,Clear,0,2013-09-23 10:15:00
5:35 AM,37.0,37.0,100,30.09,10.0,Calm,Calm,-,N/A,,Clear,0,2013-09-23 10:35:00
5:55 AM,37.0,37.0,100,30.09,10.0,Calm,Calm,-,N/A,,Clear,0,2013-09-23 10:55:00
6:15 AM,36.7,36.7,100,30.10,10.0,Calm,Calm,-,N/A,,Clear,0,2013-09-23 11:15:00
6:35 AM,36.7,36.7,100,30.10,10.0,Calm,Calm,-,N/A,,Clear,0,2013-09-23 11:35:00
6:55 AM,37.4,37.4,100,30.10,10.0,Calm,Calm,-,N/A,,Clear,0,2013-09-23 11:55:00
7:15 AM,38.7,38.7,100,30.11,10.0,SSE,3.5,-,N/A,,Clear,160,2013-09-23 12:15:00
7:35 AM,40.3,40.3,100,30.11,10.0,South,3.5,-,N/A,,Clear,180,2013-09-23 12:35:00
7:55 AM,42.4,41.7,97,30.11,10.0,SSE,3.5,-,N/A,,Clear,160,2013-09-23 12:55:00
8:15 AM,44.4,41.9,91,30.12,10.0,South,4.6,-,N/A,,Clear,170,2013-09-23 13:15:00
8:35 AM,45.7,41.9,87,30.12,10.0,South,5.8,-,N/A,,Clear,180,2013-09-23 13:35:00
8:55 AM,47.1,42.3,83,30.12,10.0,South,9.2,-,N/A,,Clear,170,2013-09-23 13:55:00
9:15 AM,49.1,43.2,80,30.12,10.0,South,6.9,-,N/A,,Clear,170,2013-09-23 14:15:00
9:35 AM,51.1,43.3,75,30.12,10.0,SSW,5.8,-,N/A,,Clear,200,2013-09-23 14:35:00
9:55 AM,52.0,43.2,72,30.13,10.0,South,11.5,17.3,N/A,,Clear,190,2013-09-23 14:55:00
10:15 AM,53.1,43.7,71,30.12,10.0,South,10.4,-,N/A,,Clear,180,2013-09-23 15:15:00
10:35 AM,54.5,44.4,69,30.12,10.0,South,8.1,-,N/A,,Clear,170,2013-09-23 15:35:00
10:55 AM,55.8,44.8,67,30.12,10.0,South,6.9,-,N/A,,Clear,180,2013-09-23 15:55:00
11:15 AM,57.4,45.1,64,30.12,10.0,South,10.4,-,N/A,,Clear,170,2013-09-23 16:15:00
11:35 AM,57.6,45.1,63,30.11,10.0,South,8.1,-,N/A,,Clear,170,2013-09-23 16:35:00
11:55 AM,58.3,45.5,62,30.11,10.0,South,5.8,-,N/A,,Clear,190,2013-09-23 16:55:00
12:15 PM,59.2,45.7,61,30.10,10.0,SSW,5.8,-,N/A,,Clear,200,2013-09-23 17:15:00
12:35 PM,61.0,47.1,60,30.10,10.0,South,6.9,-,N/A,,Clear,170,2013-09-23 17:35:00
1:15 PM,62.4,47.3,58,30.08,10.0,SSE,6.9,-,N/A,,Clear,160,2013-09-23 18:15:00
1:35 PM,63.3,47.5,56,30.07,10.0,SSE,6.9,-,N/A,,Clear,160,2013-09-23 18:35:00
1:55 PM,63.9,47.3,55,30.07,10.0,South,6.9,-,N/A,,Clear,190,2013-09-23 18:55:00
2:15 PM,64.6,47.7,54,30.06,10.0,SSE,8.1,-,N/A,,Clear,150,2013-09-23 19:15:00
2:35 PM,65.3,47.5,52,30.06,10.0,SSE,9.2,-,N/A,,Clear,150,2013-09-23 19:35:00
2:55 PM,66.4,48.0,52,30.06,10.0,South,6.9,-,N/A,,Clear,180,2013-09-23 19:55:00
3:15 PM,65.5,47.5,52,30.06,10.0,SSE,5.8,-,N/A,,Clear,160,2013-09-23 20:15:00
3:35 PM,66.4,47.5,51,30.05,10.0,SSE,6.9,-,N/A,,Clear,150,2013-09-23 20:35:00
3:55 PM,66.0,47.1,50,30.05,10.0,SSE,6.9,-,N/A,,Clear,150,2013-09-23 20:55:00
4:15 PM,65.5,47.1,51,30.05,10.0,SSE,4.6,-,N/A,,Clear,160,2013-09-23 21:15:00
4:35 PM,65.5,46.0,49,30.05,10.0,SSE,8.1,-,N/A,,Clear,160,2013-09-23 21:35:00
4:55 PM,64.9,45.7,50,30.05,10.0,South,8.1,-,N/A,,Clear,170,2013-09-23 21:55:00
5:15 PM,64.4,46.8,53,30.05,10.0,SSE,6.9,-,N/A,,Clear,160,2013-09-23 22:15:00
5:35 PM,63.7,46.8,54,30.05,10.0,South,6.9,-,N/A,,Clear,170,2013-09-23 22:35:00
5:55 PM,62.8,46.4,55,30.05,10.0,SSE,5.8,-,N/A,,Clear,160,2013-09-23 22:55:00
6:15 PM,61.3,47.3,60,30.05,10.0,SSE,4.6,-,N/A,,Clear,160,2013-09-23 23:15:00
6:35 PM,59.4,47.1,64,30.05,10.0,South,4.6,-,N/A,,Clear,170,2013-09-23 23:35:00
6:55 PM,57.4,47.3,69,30.05,10.0,SSE,4.6,-,N/A,,Clear,160,2013-09-23 23:55:00
7:15 PM,55.2,47.3,75,30.05,10.0,SE,3.5,-,N/A,,Clear,130,2013-09-24 00:15:00
7:35 PM,53.8,47.7,80,30.06,10.0,SSE,4.6,-,N/A,,Clear,150,2013-09-24 00:35:00
7:55 PM,53.6,47.3,79,30.06,10.0,SSE,3.5,-,N/A,,Clear,150,2013-09-24 00:55:00
8:15 PM,52.7,46.8,80,30.06,10.0,SSE,4.6,-,N/A,,Clear,150,2013-09-24 01:15:00
8:35 PM,52.9,46.6,79,30.06,10.0,SSE,5.8,-,N/A,,Clear,150,2013-09-24 01:35:00
8:55 PM,51.6,46.2,82,30.06,10.0,SE,3.5,-,N/A,,Clear,140,2013-09-24 01:55:00
9:15 PM,51.3,46.2,83,30.07,10.0,SSE,5.8,-,N/A,,Clear,160,2013-09-24 02:15:00
9:35 PM,50.5,45.7,83,30.07,10.0,SSE,4.6,-,N/A,,Clear,160,2013-09-24 02:35:00
9:55 PM,50.0,45.5,85,30.07,10.0,SSE,4.6,-,N/A,,Clear,160,2013-09-24 02:55:00
10:15 PM,49.3,45.5,87,30.06,10.0,SSE,4.6,-,N/A,,Clear,160,2013-09-24 03:15:00
10:35 PM,48.7,45.3,88,30.06,10.0,SSE,4.6,-,N/A,,Clear,150,2013-09-24 03:35:00
10:55 PM,48.2,45.5,90,30.07,10.0,South,4.6,-,N/A,,Clear,170,2013-09-24 03:55:00
11:15 PM,48.2,45.5,90,30.07,10.0,South,3.5,-,N/A,,Clear,180,2013-09-24 04:15:00
11:35 PM,47.7,45.5,92,30.07,10.0,SSE,4.6,-,N/A,,Clear,160,2013-09-24 04:35:00
11:55 PM,47.3,45.3,93,30.06,10.0,Calm,Calm,-,N/A,,Clear,0,2013-09-24 04:55:00